GFSNIL_sfc_temp_057.txt.gz
Temp
49 49 49 50 50 49 49 50 50 50 51 52 53 55 56 56 57 56 56 55 56 55
46 47 46 46 47 47 47 52 48 48 48 49 50 51 53 55 55 54 55 54 56 56
44 45 44 44 43 44 44 45 46 46 46 46 46 47 48 48 49 49 50 49 50 49
42 42 42 42 41 42 43 43 43 44 44 43 43 43 43 44 44 44 43 43 43 43
41 41 40 40 40 41 40 41 41 41 42 41 41 41 41 40 41 41 40 41 43 42
39 38 38 38 39 39 39 39 39 40 40 40 41 41 41 41 40 40 41 41 41 41
37 37 40 40 38 38 38 38 38 39 39 40 40 40 40 39 39 39 39 39 38 39
39 43 43 42 41 41 41 41 38 39 42 43 42 41 36 38 37 37 36 37 37 39
41 41 41 40 39 39 39 39 40 40 41 41 42 42 41 38 36 36 35 34 34 36
40 39 39 39 38 37 37 38 37 38 39 39 41 41 40 37 34 33 32 32 33 32
39 38 38 37 36 36 36 35 34 35 37 37 40 41 39 36 29 24 22 22 23 24
38 37 36 35 34 35 35 33 33 32 28 25 28 41 39 29 21 22 23 28 29 29
38 37 35 34 34 34 33 29 26 24 20 35 24 41 39 32 29 25 29 27 29 36
37 36 35 34 33 32 27 26 26 28 24 27 31 31 41 39 30 29 29 29 28 29

GFSNIL_sfc_temp_060.txt.gz
Temp
48 48 48 48 48 48 48 48 48 48 49 49 50 51 56 58 58 58 57 56 56 56
45 45 45 45 46 45 45 50 46 46 46 46 47 49 51 54 54 55 54 54 54 54
42 43 43 43 42 43 43 44 44 44 44 44 44 45 46 46 49 50 48 49 49 48
41 41 41 40 40 40 41 41 42 42 42 42 41 42 42 42 42 42 42 43 41 40
40 39 38 38 39 39 39 39 39 40 40 40 40 39 39 39 39 39 39 39 39 39
37 37 37 37 37 38 38 38 38 39 39 38 39 39 39 39 38 38 38 40 40 40
37 37 42 41 40 40 38 37 38 38 39 40 37 37 39 39 39 39 39 40 40 38
38 43 43 42 41 41 41 41 41 42 42 42 42 40 38 38 38 37 37 37 38 40
41 41 41 40 40 40 39 40 40 40 40 40 42 43 42 38 36 36 36 35 35 37
41 39 39 39 38 37 37 38 38 38 39 39 40 41 39 38 33 30 28 29 27 30
39 38 38 37 36 36 36 35 34 35 36 35 40 40 39 36 23 20 19 20 21 23
38 37 36 35 35 35 35 33 32 30 26 25 28 40 38 29 21 21 22 28 28 30
38 37 35 35 34 34 34 31 26 25 20 35 23 41 39 32 28 25 29 27 29 37
38 36 35 34 33 31 28 25 23 27 23 26 29 30 41 38 30 29 29 29 28 29

GFSNIL_sfc_temp_063.txt.gz
Temp
54 55 54 54 55 54 54 54 53 53 54 54 54 55 58 60 60 60 59 58 58 59
52 51 51 50 51 51 51 53 51 51 51 51 52 53 55 56 55 56 55 55 56 55
49 49 49 49 48 48 49 49 49 49 49 49 49 50 51 51 53 52 51 51 51 50
47 46 46 46 46 46 46 46 47 47 47 47 47 48 49 48 48 48 47 47 46 45
45 45 44 44 44 45 44 45 45 45 45 45 45 45 46 45 45 45 45 45 46 45
43 43 43 42 43 43 43 43 44 44 43 42 42 43 44 44 44 43 44 44 43 43
42 42 44 42 43 43 43 43 43 43 43 42 41 41 42 42 41 41 41 41 42 42
42 45 44 43 43 43 43 43 44 43 43 43 42 41 40 40 40 39 38 39 40 41
43 43 43 42 41 41 41 41 42 42 41 41 43 43 42 40 39 39 38 36 37 38
42 41 40 40 39 39 39 39 39 40 41 40 41 42 42 38 36 34 33 33 34 35
41 40 39 38 38 37 38 37 36 37 39 40 41 41 39 36 31 30 30 31 32 35
40 38 38 37 36 36 36 35 34 33 32 33 37 40 39 33 32 31 32 34 36 38
40 38 36 36 35 35 35 33 33 31 30 36 34 40 39 35 35 34 35 35 35 38
39 38 36 35 34 33 32 30 29 30 31 33 35 37 40 38 36 35 34 35 34 35

GFSNIL_sfc_temp_069.txt.gz
Temp
68 68 68 67 67 66 65 65 63 62 63 63 62 62 63 62 63 63 61 61 62 61
66 65 65 63 64 64 63 62 61 61 60 61 60 60 60 61 62 60 60 58 57 56
63 62 61 61 61 60 61 60 59 59 59 59 59 59 59 59 60 59 59 55 54 52
61 60 60 60 59 58 58 58 57 57 57 57 57 57 57 57 56 56 56 55 54 51
60 59 58 58 58 57 56 57 55 55 54 55 54 55 55 54 54 54 53 53 53 51
58 57 57 56 55 55 55 55 55 54 53 53 52 52 53 53 53 52 51 50 49 49
55 55 55 54 52 52 52 52 53 53 52 50 50 49 50 50 49 48 47 47 47 47
54 54 52 50 49 49 49 49 49 49 48 48 48 47 46 46 45 44 42 42 43 44
53 53 52 50 49 47 46 45 45 45 45 45 46 43 44 45 43 42 40 38 39 41
53 51 50 48 47 45 44 43 42 43 43 43 44 44 43 43 41 38 36 37 38 40
52 50 48 46 44 43 42 41 39 41 42 42 42 42 41 40 36 34 34 36 38 39
50 48 46 42 42 41 39 37 36 38 37 38 40 41 41 39 37 36 36 39 41 42
49 47 44 43 40 37 37 35 35 35 37 41 40 41 40 39 39 39 38 39 39 40
47 44 43 40 38 35 34 34 35 36 37 39 41 42 41 40 39 39 38 37 37 38

GFSNIL_sfc_temp_072.txt.gz
Temp
62 59 60 60 58 57 56 55 55 55 55 56 56 56 56 55 55 56 55 58 57 57
60 59 57 57 55 54 54 56 54 54 54 53 54 54 54 52 53 54 54 55 54 54
57 57 56 55 53 53 53 53 52 52 52 52 52 52 52 51 52 52 52 52 50 50
54 54 54 54 52 52 51 51 50 51 50 50 49 50 49 49 49 49 50 51 50 48
53 53 52 52 52 52 50 50 49 49 49 49 49 47 47 47 48 47 47 47 49 48
51 51 51 50 51 51 50 49 48 49 47 47 47 46 46 46 46 45 43 44 44 46
48 48 48 49 48 47 47 47 47 47 46 46 45 45 45 45 43 43 43 42 43 44
47 47 46 45 44 45 45 45 44 44 45 46 45 46 44 45 44 41 39 40 42 42
48 47 45 44 43 42 41 41 44 44 44 43 46 44 44 44 41 41 39 38 39 40
47 46 44 44 45 44 43 40 41 42 42 42 42 44 44 44 40 37 36 36 37 38
46 45 43 44 43 42 41 38 38 40 40 40 41 42 42 40 34 33 34 34 33 35
45 43 42 41 41 40 39 37 37 38 37 36 38 41 42 36 30 29 31 36 36 37
44 42 39 41 40 37 37 36 35 34 35 40 36 41 41 38 34 32 33 34 34 41
42 41 40 39 38 35 34 34 33 34 35 35 36 36 42 41 34 33 33 32 32 33

GFSNIL_sfc_temp_075.txt.gz
Temp
60 60 58 58 57 57 54 54 55 54 54 54 54 53 53 52 52 53 53 53 53 55
58 58 57 57 54 53 53 54 52 53 53 52 52 52 51 50 50 51 51 52 52 53
56 56 55 53 53 53 51 52 51 50 50 50 50 50 49 48 49 49 49 50 49 50
54 54 53 52 52 50 49 50 50 50 49 49 48 48 47 46 47 47 47 48 49 48
51 50 49 49 50 50 48 48 49 49 48 48 47 46 45 45 45 45 45 45 45 48
48 48 48 47 47 48 48 48 48 48 46 46 45 45 44 45 44 43 42 42 43 43
46 46 45 45 45 45 45 45 44 44 45 44 44 43 43 43 41 41 40 41 41 42
45 45 44 43 43 42 42 43 43 43 43 44 44 44 41 44 43 42 40 38 41 42
45 44 43 42 41 40 40 39 40 40 42 43 45 45 45 44 42 41 39 38 39 41
45 44 42 41 41 40 41 42 37 38 39 42 42 44 44 44 40 38 37 37 37 38
44 43 41 40 40 40 42 40 38 39 40 40 42 44 43 41 35 34 34 35 35 33
44 42 40 39 38 41 40 38 37 38 37 37 39 42 42 37 34 33 33 34 35 34
43 41 39 38 37 38 38 37 36 35 36 39 37 42 42 37 32 30 33 33 35 40
42 40 39 37 37 36 35 34 34 34 35 37 38 37 42 42 34 33 32 32 32 33